Weather History for Jasper, TX

Change the Weather History Date:

Monday, April 22, 2013

  Actual Average (KLFK) Record (KLFK)
Temperature  
Mean Temperature 62 °F 68 °F  
Max Temperature 80 °F 80 °F 91 °F (2011)
Min Temperature 45 °F 57 °F 36 °F (1931)
Degree Days  
Heating Degree Days 2 1  
Month to date heating degree days 62  
Since 1 July heating degree days 1906  
Cooling Degree Days 0 5  
Month to date cooling degree days 75  
Year to date cooling degree days 135  
Growing Degree Days 12 (Base 50)    
Moisture  
Dew Point 50 °F    
Average Humidity 65    
Maximum Humidity 97    
Minimum Humidity 34    
Precipitation  
Precipitation 0.00 in 0.10 in 3.72 in (1926)
Month to date precipitation 2.18  
Year to date precipitation 14.01  
Snow  
Snow 0.00 in - - ()
Month to date snowfall  
Since 1 July snowfall  
Snow Depth -    
Sea Level Pressure  
Sea Level Pressure 30.08 in    
Wind  
Wind Speed 2 mph (SE)    
Max Wind Speed 9 mph    
Max Gust Speed -    
Visibility 9 miles    
Events      
T = Trace of Precipitation, MM = Missing Value Source: NWS Daily Summary

Daily Weather History Graph

Daily Weather History Graph

Search for Another Location

Airport:

Trip Planner

Search our weather history database for the weather conditions in past years. The results will help you decide how hot, cold, wet, or windy it might be!

Date:

Astronomy

Apr. 22, 2013 Rise Set
Actual Time 6:40 AM CDT 7:49 PM CDT
Civil Twilight 6:15 AM CDT 8:14 PM CDT
Nautical Twilight 5:45 AM CDT 8:44 PM CDT
Astronomical Twilight 5:14 AM CDT 9:15 PM CDT
Moon 4:50 PM CDT (4/22) 4:22 AM CDT (4/22)
Length of Visible Light 13h 58m
Length of Day
13h 08m
Waxing Gibbous, 88% of the Moon is Illuminated
Apr 22
Waxing Gibbous
Apr 25
Full
May 2
Last Quarter
May 9
New
May 17
First Quarter

Hourly Weather History & Observations

Time (CDT) Temp. Dew Point Humidity Pressure Visibility Wind Dir Wind Speed Gust Speed Precip Events Conditions
12:15 AM 53.1 °F 49.5 °F 88% 30.16 in 10.0 mi Calm Calm - N/A   Clear
12:35 AM 52.3 °F 49.1 °F 89% 30.16 in 7.0 mi Calm Calm - N/A   Clear
12:55 AM 51.3 °F 49.1 °F 92% 30.16 in 7.0 mi Calm Calm - N/A   Clear
1:15 AM 50.2 °F 48.4 °F 94% 30.16 in 10.0 mi Calm Calm - N/A   Clear
1:35 AM 49.5 °F 47.8 °F 94% 30.16 in 10.0 mi Calm Calm - N/A   Clear
1:55 AM 49.5 °F 48.0 °F 95% 30.16 in 7.0 mi Calm Calm - N/A   Clear
2:15 AM 48.9 °F 47.5 °F 95% 30.16 in 7.0 mi Calm Calm - N/A   Clear
2:35 AM 48.7 °F 47.5 °F 95% 30.15 in 7.0 mi Calm Calm - N/A   Clear
2:55 AM 48.6 °F 46.9 °F 94% 30.14 in 7.0 mi Calm Calm - N/A   Clear
3:15 AM 48.2 °F 46.8 °F 95% 30.14 in 7.0 mi Calm Calm - N/A   Clear
3:35 AM 47.8 °F 46.6 °F 95% 30.14 in 7.0 mi Calm Calm - N/A   Clear
3:55 AM 47.5 °F 46.4 °F 96% 30.14 in 5.0 mi Calm Calm - N/A   Clear
4:15 AM 47.1 °F 46.0 °F 96% 30.13 in 7.0 mi Calm Calm - N/A   Clear
4:35 AM 47.3 °F 46.2 °F 96% 30.13 in 5.0 mi Calm Calm - N/A   Clear
4:55 AM 47.1 °F 46.0 °F 96% 30.13 in 5.0 mi Calm Calm - N/A   Clear
5:15 AM 46.9 °F 46.0 °F 97% 30.12 in 5.0 mi Calm Calm - N/A   Clear
5:35 AM 46.8 °F 45.9 °F 97% 30.12 in 5.0 mi Calm Calm - N/A   Clear
5:55 AM 46.4 °F 45.5 °F 97% 30.13 in 4.0 mi Calm Calm - N/A   Clear
6:15 AM 46.0 °F 45.3 °F 97% 30.13 in 4.0 mi Calm Calm - N/A   Clear
6:35 AM 46.0 °F 45.3 °F 97% 30.13 in 5.0 mi Calm Calm - N/A   Clear
6:55 AM 45.5 °F 44.8 °F 97% 30.13 in 5.0 mi Calm Calm - N/A   Clear
7:15 AM 45.9 °F 45.0 °F 97% 30.14 in 7.0 mi Calm Calm - N/A   Clear
7:35 AM 47.7 °F 46.6 °F 96% 30.14 in 10.0 mi Calm Calm - N/A   Clear
7:55 AM 50.9 °F 48.0 °F 90% 30.14 in 10.0 mi Calm Calm - N/A   Clear
8:15 AM 54.7 °F 49.1 °F 81% 30.14 in 10.0 mi Calm Calm - N/A   Clear
8:35 AM 57.9 °F 49.8 °F 74% 30.14 in 10.0 mi Calm Calm - N/A   Clear
8:55 AM 60.6 °F 50.7 °F 70% 30.14 in 10.0 mi East 3.5 mph - N/A   Clear
9:15 AM 63.0 °F 51.6 °F 66% 30.14 in 10.0 mi East 3.5 mph - N/A   Clear
9:35 AM 65.5 °F 52.5 °F 63% 30.14 in 10.0 mi Calm Calm - N/A   Clear
9:55 AM 67.5 °F 53.6 °F 61% 30.15 in 10.0 mi Calm Calm - N/A   Clear
10:15 AM 69.4 °F 54.1 °F 58% 30.15 in 10.0 mi Calm Calm - N/A   Clear
10:35 AM 71.6 °F 52.2 °F 50% 30.15 in 10.0 mi East 6.9 mph - N/A   Clear
10:55 AM 73.0 °F 49.6 °F 44% 30.15 in 10.0 mi East 8.1 mph - N/A   Clear
11:15 AM 73.6 °F 46.9 °F 39% 30.15 in 10.0 mi SSE 5.8 mph - N/A   Clear
11:35 AM 74.3 °F 45.3 °F 36% 30.14 in 10.0 mi South 8.1 mph - N/A   Clear
11:55 AM 74.5 °F 46.0 °F 36% 30.14 in 10.0 mi SE 5.8 mph - N/A   Clear
12:15 PM 74.8 °F 45.3 °F 35% 30.13 in 10.0 mi ESE 6.9 mph - N/A   Clear
12:35 PM 75.4 °F 46.2 °F 35% 30.12 in 10.0 mi SE 5.8 mph - N/A   Clear
12:55 PM 75.9 °F 46.8 °F 36% 30.11 in 10.0 mi SW 4.6 mph - N/A   Clear
1:15 PM 76.5 °F 46.6 °F 35% 30.10 in 10.0 mi South 4.6 mph - N/A   Clear
1:35 PM 76.8 °F 47.5 °F 35% 30.09 in 10.0 mi SSE 5.8 mph - N/A   Clear
1:55 PM 77.2 °F 47.1 °F 35% 30.09 in 10.0 mi West 4.6 mph - N/A   Clear
2:15 PM 78.1 °F 48.2 °F 35% 30.08 in 10.0 mi Calm Calm - N/A   Clear
2:35 PM 78.1 °F 49.1 °F 36% 30.07 in 10.0 mi SSW 4.6 mph - N/A   Clear
2:55 PM 78.8 °F 50.0 °F 36% 30.06 in 10.0 mi ESE 8.1 mph - N/A   Clear
3:15 PM 79.2 °F 49.6 °F 35% 30.05 in 10.0 mi Calm Calm - N/A   Clear
3:35 PM 79.3 °F 49.5 °F 35% 30.03 in 10.0 mi SSE 4.6 mph - N/A   Clear
3:55 PM 79.5 °F 49.5 °F 35% 30.03 in 10.0 mi South 6.9 mph - N/A   Clear
4:15 PM 80.1 °F 49.6 °F 34% 30.02 in 10.0 mi SE 6.9 mph - N/A   Clear
4:35 PM 79.9 °F 49.1 °F 34% 30.01 in 10.0 mi South 5.8 mph - N/A   Clear
4:55 PM 79.9 °F 49.5 °F 34% 30.00 in 10.0 mi ESE 4.6 mph - N/A   Clear
5:15 PM 80.1 °F 51.3 °F 37% 30.00 in 10.0 mi SSE 9.2 mph - N/A   Clear
5:35 PM 79.9 °F 50.7 °F 36% 30.00 in 10.0 mi SE 5.8 mph - N/A   Clear
5:55 PM 79.3 °F 51.3 °F 37% 29.99 in 10.0 mi SE 6.9 mph - N/A   Clear
6:15 PM 79.2 °F 51.6 °F 38% 29.98 in 10.0 mi SSE 6.9 mph - N/A   Clear
6:35 PM 78.4 °F 51.6 °F 39% 29.98 in 10.0 mi SE 4.6 mph - N/A   Clear
6:55 PM 77.5 °F 52.3 °F 41% 29.98 in 10.0 mi SSE 4.6 mph - N/A   Clear
7:15 PM 76.5 °F 52.9 °F 44% 29.98 in 10.0 mi SE 4.6 mph - N/A   Clear
7:35 PM 75.0 °F 53.1 °F 46% 29.99 in 10.0 mi SE 3.5 mph - N/A   Clear
7:55 PM 73.2 °F 53.8 °F 50% 29.99 in 10.0 mi ESE 3.5 mph - N/A   Clear
8:15 PM 71.2 °F 54.7 °F 56% 29.99 in 10.0 mi ESE 3.5 mph - N/A   Clear
8:35 PM 70.2 °F 55.0 °F 59% 30.00 in 10.0 mi ESE 4.6 mph - N/A   Clear
8:55 PM 69.6 °F 54.9 °F 59% 30.00 in 10.0 mi SE 3.5 mph - N/A   Clear
9:15 PM 68.7 °F 55.4 °F 62% 30.01 in 10.0 mi SSE 3.5 mph - N/A   Clear
9:35 PM 68.0 °F 55.9 °F 65% 30.01 in 10.0 mi SSE 4.6 mph - N/A   Clear
9:55 PM 67.3 °F 56.5 °F 68% 30.01 in 10.0 mi South 4.6 mph - N/A   Clear
10:15 PM 66.2 °F 56.8 °F 72% 30.02 in 10.0 mi SSE 4.6 mph - N/A   Clear
10:35 PM 65.3 °F 57.2 °F 75% 30.02 in 10.0 mi SSE 3.5 mph - N/A   Clear
10:55 PM 64.6 °F 56.8 °F 76% 30.02 in 10.0 mi SSE 3.5 mph - N/A   Clear
11:15 PM 63.7 °F 56.7 °F 78% 30.01 in 10.0 mi Calm Calm - N/A   Clear
11:35 PM 62.8 °F 56.5 °F 80% 30.01 in 10.0 mi Calm Calm - N/A   Clear
11:55 PM 61.9 °F 56.3 °F 82% 30.01 in 10.0 mi Calm Calm - N/A   Clear